Погода в Новеньком

Россия / Белгородская область     50°58′41″N   36°08′45″E
темп.,
°C
ветер,
м/с
пор.,
м/с
влажн.,
%
обл.,
%
осадки,
мм/ч
давл.,
гПа
погр.,
м
16 апреля, пт
пт1600:00+7ююв37954 1.6 1013248
03:00+7юв3589100 1.6 1014220
06:00+6юв499052 0.1 1014345
09:00+8ююв587968 0.1 1015760
12:00+8ююв578390 0.2 1016551
15:00+10ююв576791 0.5 10161149
18:00+10ююв477197 0.3 1016811
21:00+7юв398712 0.3 1016204
17 апреля, сб
сб1700:00+6ююв369090 0.3 1017128
03:00+5ююв249421 1.2 1017186
06:00+4ююв239295 0.0 101861
09:00+8ююз338062 0.1 1018618
12:00+10ююз455537 0.3 10181546
15:00+9ююз556051 0.4 10181099
18:00+7юз567699 0.1 1019757
21:00+6ююз4684100 0.1 1020601
18 апреля, вс
вс1800:00+5ююз378885 0.1 1020417
03:00+4ю349280 0.2 1020113
06:00+5ююв3584100 0.0 1019198
09:00+7ю4676100 0.1 1019568
12:00+8ю4673100 0.0 1019720
15:00+12ю575297 0.1 10181833
18:00+10юв3767100 0.1 1018177
21:00+9юв51169100 0.2 1018262
19 апреля, пн
пн1900:00+8вюв5117396 0.0 1018207
03:00+8вюв41176100 0.0 1017284
06:00+8юв51175100 0.0 1017270
09:00+10юв61067100 0.0 1017557
12:00+11юв7970100 0.3 10171237
15:00+9юв5982100 0.5 10161260
18:00+9в61183100 0.2 1014954
21:00+8в61091100 0.3 1012642
20 апреля, вт
вт2000:00+8в51094100 0.1 1010457
03:00+9всв61297100 1.8 1005460
06:00+10в81697100 6.8 1000655
09:00+12юв81496100 12.9 997792
12:00+11юв81594100 8.1 9961004
15:00+15ю8117249 9.6 9951293
18:00+13ю587283 1.8 996459
21:00+8ююв51190100 3.4 999585